FW4559 Weather Reports


time (UTC)temp
C
wind
direction
speed
KPH
gust
KPH
rain 1hr
cm
rain 24hr
cm
rain mn
cm
humidity
%
barometer
mb
20260502215549 10 330 9.7 22.5 0.00 0.00 0.00 47 1012.3
20260502215048 10 15 8.0 24.1 0.00 0.00 0.00 47 1012.3
20260502214548 10 283 12.9 24.1 0.00 0.00 0.00 46 1012.1
20260502214048 10 347 8.0 22.5 0.00 0.00 0.00 45 1012.1
20260502213548 10 88 3.2 20.9 0.00 0.00 0.00 47 1012.1
20260502213053 10 30 9.7 24.1 0.00 0.00 0.00 46 1012.0
20260502212552 10 319 6.4 33.8 0.00 0.00 0.00 45 1012.1
20260502212048 10 357 8.0 33.8 0.00 0.00 0.00 44 1012.0
20260502211548 10 293 9.7 29.0 0.00 0.00 0.00 43 1011.8
20260502211047 10 338 14.5 22.5 0.00 0.00 0.00 44 1011.9
20260502210547 10 302 6.4 25.7 0.00 0.00 0.00 45 1011.8
20260502210046 10 250 8.0 25.7 0.00 0.00 0.00 43 1011.7
20260502205546 10 293 8.0 27.4 0.00 0.00 0.00 43 1011.5
20260502205046 11 1 4.8 25.7 0.00 0.00 0.00 43 1011.6
20260502204546 11 326 4.8 19.3 0.00 0.00 0.00 44 1011.5
20260502204046 11 24 8.0 24.1 0.00 0.00 0.00 42 1011.5
20260502203547 11 15 14.5 25.7 0.00 0.00 0.00 41 1011.3
20260502203046 11 338 9.7 30.6 0.00 0.00 0.00 42 1011.5
20260502202546 11 329 12.9 30.6 0.00 0.00 0.00 41 1011.4
20260502202049 12 321 16.1 30.6 0.00 0.00 0.00 39 1011.3
20260502201549 12 279 11.3 24.1 0.00 0.00 0.00 40 1011.4
20260502201045 12 120 11.3 29.0 0.00 0.00 0.00 38 1011.4
20260502200545 12 59 9.7 29.0 0.00 0.00 0.00 39 1011.3
20260502200044 12 23 8.0 19.3 0.00 0.00 0.00 37 1011.5
20260502195543 12 204 4.8 20.9 0.00 0.00 0.00 37 1011.4
20260502195043 12 346 9.7 20.9 0.00 0.00 0.00 36 1011.3
20260502194542 12 220 6.4 20.9 0.00 0.00 0.00 36 1011.4
20260502194045 12 359 6.4 20.9 0.00 0.00 0.00 37 1011.4
20260502193543 13 346 12.9 19.3 0.00 0.00 0.00 36 1011.5
20260502193049 13 328 4.8 22.5 0.00 0.00 0.00 35 1011.5
20260502192543 13 60 6.4 19.3 0.00 0.00 0.00 37 1011.5
20260502192040 12 342 6.4 20.9 0.00 0.00 0.00 37 1011.5
20260502191545 13 340 9.7 19.3 0.00 0.00 0.00 35 1011.6
20260502191039 13 191 8.0 16.1 0.00 0.00 0.00 38 1011.6
20260502190539 12 287 4.8 20.9 0.00 0.00 0.00 37 1011.6
20260502190038 12 330 6.4 20.9 0.00 0.00 0.00 38 1011.7
20260502185537 12 121 4.8 20.9 0.00 0.00 0.00 37 1011.7
20260502185037 12 82 4.8 20.9 0.00 0.00 0.00 39 1011.7
20260502184547 12 329 1.6 12.9 0.00 0.00 0.00 37 1011.7
20260502184036 12 234 3.2 17.7 0.00 0.00 0.00 36 1011.7
20260502183535 11 226 11.3 25.7 0.00 0.00 0.00 37 1011.8
20260502183037 12 319 14.5 25.7 0.00 0.00 0.00 37 1011.9
20260502182534 12 250 6.4 22.5 0.00 0.00 0.00 36 1011.7
20260502182038 12 290 8.0 22.5 0.00 0.00 0.00 37 1011.9
20260502181538 11 258 3.2 16.1 0.00 0.00 0.00 35 1011.9
20260502181033 11 287 3.2 16.1 0.00 0.00 0.00 35 1011.8
20260502180532 11 323 3.2 17.7 0.00 0.00 0.00 34 1012.0
20260502164026 10 275 3.2 12.9 0.00 0.00 0.00 38 1012.7
20260502163525 10 110 4.8 17.7 0.00 0.00 0.00 37 1012.9
20260502163028 10 23 9.7 17.7 0.00 0.00 0.00 37 1012.9
20260502162526 10 350 0.0 14.5 0.00 0.00 0.00 38 1013.0
20260502162025 11 66 1.6 22.5 0.00 0.00 0.00 37 1013.0
20260502161525 11 13 12.9 22.5 0.00 0.00 0.00 34 1013.1
20260502161024 11 62 1.6 11.3 0.00 0.00 0.00 36 1013.1
20260502160527 11 56 4.8 9.7 0.00 0.00 0.00 36 1013.1
20260502152017 8 13 12.9 22.5 0.00 0.00 0.00 43 1013.2
20260502151517 8 334 14.5 22.5 0.00 0.00 0.00 43 1013.2
20260502151016 8 49 6.4 14.5 0.00 0.00 0.00 44 1013.3
20260502150516 7 108 8.0 16.1 0.00 0.00 0.00 45 1013.3
20260502130507 6 4 6.4 19.3 0.00 0.00 0.00 52 1013.1
20260502123503 6 319 4.8 17.7 0.00 0.00 0.00 59 1013.0
20260502123003 6 318 9.7 17.7 0.00 0.00 0.00 60 1012.8
20260502122502 6 6 6.4 16.1 0.00 0.00 0.00 62 1012.7
20260502122003 6 13 4.8 16.1 0.00 0.00 0.00 63 1012.8
20260502121508 6 338 8.0 16.1 0.00 0.00 0.00 64 1012.8
20260502121101 6 25 8.0 16.1 0.00 0.00 0.00 64 1012.7
20260502120600 6 337 4.8 12.9 0.00 0.00 0.00 67 1012.5
20260502120104 6 330 3.2 14.5 0.00 0.00 0.00 68 1012.5
20260502115559 6 32 3.2 11.3 0.00 0.00 0.00 68 1012.6
20260502115100 6 347 3.2 11.3 0.00 0.00 0.00 69 1012.6
20260502114558 6 354 4.8 12.9 0.00 0.00 0.00 70 1012.6
20260502114056 6 18 6.4 14.5 0.00 0.00 0.00 71 1012.5
20260502113557 6 23 8.0 14.5 0.00 0.00 0.00 72 1012.8
20260502113055 6 26 6.4 12.9 0.00 0.00 0.00 73 1012.7
20260502112554 6 20 3.2 14.5 0.00 0.00 0.00 74 1012.7
20260502112054 6 331 8.0 14.5 0.00 0.00 0.00 74 1012.7
20260502111605 6 329 4.8 9.7 0.00 0.00 0.00 75 1012.7
20260502111055 6 331 3.2 9.7 0.00 0.00 0.00 75 1012.7
20260502110553 6 342 3.2 11.3 0.00 0.00 0.00 76 1012.4
20260502110053 6 315 4.8 14.5 0.00 0.00 0.00 76 1012.5
20260502105553 6 4 6.4 14.5 0.00 0.00 0.00 77 1012.5
20260502105052 6 347 6.4 14.5 0.00 0.00 0.00 77 1012.4
20260502104553 6 6 6.4 14.5 0.00 0.00 0.00 78 1012.4
20260502104051 6 331 6.4 14.5 0.00 0.00 0.00 79 1012.2
20260502103549 6 355 3.2 8.0 0.00 0.00 0.00 80 1012.5
20260502103102 6 5 3.2 9.7 0.00 0.00 0.00 80 1012.5
20260502102549 6 333 3.2 12.9 0.00 0.00 0.00 79 1012.4
20260502102048 6 353 6.4 12.9 0.00 0.00 0.00 79 1012.3
20260502101558 6 352 3.2 12.9 0.00 0.00 0.00 79 1012.4
20260502101048 6 347 6.4 14.5 0.00 0.00 0.00 79 1012.3
20260502100546 6 2 6.4 12.9 0.00 0.00 0.00 79 1012.4
20260502091038 6 355 4.8 16.1 0.00 0.00 0.00 77 1013.1
20260502090540 6 335 4.8 16.1 0.00 0.00 0.00 77 1013.0
20260502071527 7 1 4.8 12.9 0.00 0.00 0.00 80 1012.2
20260502071021 7 348 4.8 12.9 0.00 0.00 0.00 80 1012.2
20260502070521 7 317 4.8 9.7 0.00 0.00 0.00 80 1012.3
20260502070025 7 332 4.8 8.0 0.00 0.00 0.00 80 1012.3
20260502065519 8 324 3.2 6.4 0.00 0.00 0.00 79 1012.3
20260502065022 8 13 1.6 6.4 0.00 0.00 0.00 79 1012.2
20260502064518 8 349 1.6 6.4 0.00 0.00 0.00 79 1012.2
20260502064017 8 359 1.6 9.7 0.00 0.00 0.00 79 1012.2
20260502063516 8 15 3.2 6.4 0.00 0.00 0.00 79 1012.4
20260502063025 8 326 0.0 3.2 0.00 0.00 0.00 79 1012.7
20260502062514 8 344 0.0 1.6 0.00 0.00 0.00 78 1012.8
20260502062013 8 345 0.0 6.4 0.00 0.00 0.00 77 1012.8
20260502061513 8 18 1.6 6.4 0.00 0.00 0.00 77 1012.9
20260502061012 8 326 1.6 8.0 0.00 0.00 0.00 77 1013.0
20260502060512 8 348 3.2 8.0 0.00 0.00 0.00 77 1013.1
20260502060018 8 327 3.2 8.0 0.00 0.00 0.00 77 1013.1
20260502055511 8 325 1.6 6.4 0.00 0.00 0.00 77 1013.1
20260502055011 8 9 3.2 6.4 0.00 0.00 0.00 77 1013.2
20260502054522 8 350 0.0 8.0 0.00 0.00 0.00 76 1013.3
20260502054010 8 338 3.2 8.0 0.00 0.00 0.00 76 1013.2
20260502053510 8 6 0.0 4.8 0.00 0.00 0.00 76 1013.4
20260502053009 8 1 0.0 4.8 0.00 0.00 0.00 75 1013.4
20260502052509 8 16 0.0 3.2 0.00 0.00 0.00 75 1013.4
20260502052010 8 16 1.6 3.2 0.00 0.00 0.00 75 1013.4
20260502051509 8 333 0.0 11.3 0.00 0.00 0.00 74 1013.2
20260502051008 8 9 3.2 11.3 0.00 0.00 0.00 74 1013.3
20260502050508 8 304 0.0 3.2 0.00 0.00 0.00 73 1013.4
20260502050009 8 323 0.0 4.8 0.00 0.00 0.00 73 1013.1
20260502045507 8 323 0.0 4.8 0.00 0.00 0.00 73 1013.2
20260502045007 8 338 0.0 4.8 0.00 0.00 0.00 72 1013.3
20260502044506 8 338 0.0 4.8 0.00 0.00 0.00 73 1013.2
20260502044005 8 359 0.0 6.4 0.00 0.00 0.00 73 1013.0
20260502043504 7 338 3.2 6.4 0.00 0.00 0.00 74 1013.1
20260502043003 8 203 0.0 1.6 0.00 0.00 0.00 73 1013.2
20260502042502 8 203 0.0 1.6 0.00 0.00 0.00 72 1013.1
20260502042003 8 345 0.0 6.4 0.00 0.00 0.00 70 1013.2
20260502041600 8 345 1.6 6.4 0.00 0.00 0.00 70 1013.2
20260502041059 8 345 0.0 1.6 0.00 0.00 0.00 70 1013.2
20260502040558 8 345 0.0 1.6 0.00 0.00 0.00 70 1013.1
20260502040057 8 345 0.0 4.8 0.00 0.00 0.00 70 1013.2
20260502035600 8 345 0.0 4.8 0.00 0.00 0.00 71 1013.2
20260502035057 8 65 0.0 3.2 0.00 0.00 0.00 71 1013.2
20260502034557 7 65 0.0 3.2 0.00 0.00 0.00 72 1013.3
20260502034057 7 3 0.0 3.2 0.00 0.00 0.00 73 1013.2
20260502033556 8 124 0.0 3.2 0.00 0.00 0.00 72 1013.2
20260502033057 8 108 0.0 4.8 0.00 0.00 0.00 72 1013.0
20260502032556 8 114 1.6 4.8 0.00 0.00 0.00 71 1013.0
20260502032056 8 110 0.0 1.6 0.00 0.00 0.00 69 1013.1
20260502031556 8 111 0.0 1.6 0.00 0.00 0.00 69 1013.2
20260502031056 8 111 0.0 1.6 0.00 0.00 0.00 68 1013.0
20260502030555 8 110 0.0 1.6 0.00 0.00 0.00 67 1013.2
20260502030056 8 110 0.0 0.0 0.00 0.00 0.00 66 1013.3
20260502025554 9 111 0.0 0.0 0.00 0.00 0.00 66 1013.3
20260502025058 9 111 0.0 0.0 0.00 0.00 0.00 64 1013.4
20260502024554 9 110 0.0 1.6 0.00 0.00 0.00 61 1013.5
20260502024054 10 111 0.0 1.6 0.00 0.00 0.00 62 1013.5
20260502023556 10 110 0.0 3.2 0.00 0.00 0.00 60 1013.4
20260502023056 10 111 0.0 3.2 0.00 0.00 0.00 60 1013.4
20260502022556 10 143 0.0 3.2 0.00 0.00 0.00 60 1013.2
20260502022054 10 115 0.0 3.2 0.00 0.00 0.00 60 1013.2
20260502021553 10 165 0.0 3.2 0.00 0.00 0.00 59 1013.3
20260502021053 10 162 0.0 3.2 0.00 0.00 0.00 59 1013.2
20260502020553 10 142 0.0 4.8 0.00 0.00 0.00 59 1013.2
20260502020053 10 124 1.6 8.0 0.00 0.00 0.00 59 1013.1
20260502015551 10 126 1.6 8.0 0.00 0.00 0.00 59 1012.9
20260502015052 10 195 0.0 4.8 0.00 0.00 0.00 59 1012.9
20260502014552 10 195 0.0 6.4 0.00 0.00 0.00 59 1012.9
20260502014051 10 162 0.0 3.2 0.00 0.00 0.00 59 1012.8
20260502013551 10 168 0.0 1.6 0.00 0.00 0.00 59 1012.5
20260502013054 10 168 0.0 1.6 0.00 0.00 0.00 58 1012.4
20260502012551 10 160 0.0 1.6 0.00 0.00 0.00 57 1012.5
20260502012052 10 235 0.0 3.2 0.00 0.00 0.00 56 1012.4
20260502011551 10 242 0.0 3.2 0.00 0.00 0.00 54 1012.4
20260502011051 11 226 0.0 3.2 0.00 0.00 0.00 52 1012.4
20260502010550 11 244 0.0 4.8 0.00 0.00 0.00 50 1012.3
20260502010053 11 269 0.0 6.4 0.00 0.00 0.00 49 1012.3
20260502005550 11 261 1.6 4.8 0.00 0.00 0.00 49 1012.5
20260502005050 11 274 1.6 4.8 0.00 0.00 0.00 48 1012.4
20260502004604 11 278 0.0 4.8 0.00 0.00 0.00 48 1012.3
20260502004050 11 246 0.0 3.2 0.00 0.00 0.00 48 1012.4
20260502003549 11 232 0.0 1.6 0.00 0.00 0.00 48 1012.3
20260502003050 11 232 0.0 0.0 0.00 0.00 0.00 47 1012.2
20260502002549 12 232 0.0 1.6 0.00 0.00 0.00 46 1011.9
20260502002049 12 232 0.0 1.6 0.00 0.00 0.00 45 1011.8
20260502001549 12 232 0.0 1.6 0.00 0.00 0.00 43 1011.6
20260502001049 12 232 0.0 3.2 0.00 0.00 0.00 43 1011.6
20260502000549 12 232 0.0 4.8 0.00 0.00 0.00 41 1011.6
20260502000058 13 271 0.0 4.8 0.00 0.00 0.00 41 1011.7
20260501235548 13 270 0.0 4.8 0.00 0.00 0.00 40 1011.4
20260501235148 13 257 0.0 11.3 0.00 0.00 0.00 39 1011.4
20260501234548 13 268 3.2 11.3 0.00 0.00 0.00 39 1011.5
20260501234048 13 244 0.0 4.8 0.00 0.00 0.00 38 1011.4
20260501233550 13 241 0.0 9.7 0.00 0.00 0.00 39 1011.4
20260501233048 13 307 3.2 9.7 0.00 0.00 0.00 38 1011.3
20260501232547 13 300 1.6 9.7 0.00 0.00 0.00 38 1011.2
20260501232047 14 223 1.6 4.8 0.00 0.00 0.00 39 1011.2
20260501231547 14 261 0.0 8.0 0.00 0.00 0.00 37 1011.3
20260501231047 14 262 3.2 9.7 0.00 0.00 0.00 37 1011.4
20260501230547 15 320 3.2 9.7 0.00 0.00 0.00 37 1011.2
20260501230046 15 6 1.6 11.3 0.00 0.00 0.00 36 1011.3
20260501225547 15 105 4.8 17.7 0.00 0.00 0.00 36 1011.3
20260501225048 15 256 4.8 17.7 0.00 0.00 0.00 39 1011.2
20260501224545 15 307 4.8 17.7 0.00 0.00 0.00 38 1011.2
20260501224044 16 210 0.0 11.3 0.00 0.00 0.00 54 1011.2
20260501223544 15 156 3.2 11.3 0.00 0.00 0.00 52 1011.2
20260501223044 15 280 0.0 8.0 0.00 0.00 0.00 52 1011.1
20260501222544 16 232 1.6 11.3 0.00 0.00 0.00 50 1011.2
20260501222045 16 179 3.2 11.3 0.00 0.00 0.00 49 1011.3
20260501221544 16 193 1.6 8.0 0.00 0.00 0.00 51 1011.1
20260501221047 16 213 1.6 8.0 0.00 0.00 0.00 51 1011.1
20260501220544 16 203 1.6 8.0 0.00 0.00 0.00 50 1011.1
20260501220050 16 207 1.6 9.7 0.00 0.00 0.00 49 1011.2